Datos meteoreol�gicos.
Lugar de muestreo: Estaci�n de Fotobiolog�a Playa Uni�n (EFPU) en Playa Uni�n, Chubut, Argentina (-43.311263, -65.040969).
Datos aportados al Sistema Nacional de Datos del Mar.
Fecha,Temperatura_Max,Humedad_Max,Vel.Viento_Km/h_Max,Temperatura_Min,Humedad_Min,Vel.Viento_Km/h_Min,Temperatura_Prom,Humedad_Prom,Vel.Viento_Km/h_Prom,Direcci�n_Viento
2001-07-28,12.5,94.0,22.0,3.6,40.0,5.0,7.8,65.4,11.9,NNW
2001-07-29,14.8,92.0,19.4,2.8,44.0,0.0,9.0,65.9,11.4,WNW
2001-07-30,9.0,98.0,16.6,2.5,59.0,0.0,6.7,82.3,8.3,NE
2001-07-31,15.6,79.0,31.0,5.5,40.0,8.3,11.5,55.0,15.6,NW
2001-08-01,15.8,96.0,42.1,9.6,57.0,7.2,12.1,75.3,20.3,NNE
2001-08-02,18.8,87.0,27.0,4.0,40.0,0.0,12.4,57.6,12.5,W
2001-08-03,14.1,96.0,18.0,6.7,45.0,0.0,8.3,79.9,10.4,SSE
2001-08-04,11.0,93.0,45.4,5.0,68.0,9.0,7.7,80.8,20.5,ENE
2001-08-05,8.6,98.0,20.2,3.3,81.0,0.0,6.0,95.3,12.4,WSW
2001-08-06,15.8,88.0,18.0,5.8,39.0,0.0,10.9,63.4,10.1,NNW
2001-08-07,19.5,74.0,26.3,10.5,42.0,5.8,14.9,56.3,11.9,WNW
2001-08-08,17.4,98.0,33.1,7.0,34.0,7.6,11.8,62.3,16.4,SSE
2001-08-09,11.0,86.0,29.5,7.8,65.0,9.7,9.1,74.8,18.2,NNE
2001-08-10,14.6,95.0,43.2,8.1,67.0,9.7,10.8,83.7,21.1,NNW
2001-08-11,9.0,98.0,22.7,7.4,88.0,0.0,8.0,95.8,11.8,SE
2001-08-12,16.8,98.0,31.7,7.8,44.0,7.6,12.3,68.0,16.2,WNW
2001-08-13,14.4,83.0,37.1,7.1,54.0,6.5,11.8,70.6,17.8,WNW
2001-08-14,12.5,74.0,39.2,2.0,36.0,0.0,8.8,45.8,17.3,WNW
2001-08-15,13.2,77.0,18.7,1.7,34.0,0.0,8.6,49.2,12.2,NNW
2001-08-16,13.9,69.0,26.3,2.8,33.0,0.0,9.4,45.8,9.4,WNW
2001-08-17,18.2,53.0,34.6,5.5,25.0,10.4,12.9,38.9,18.7,NNW
2001-08-18,13.4,94.0,16.6,7.6,55.0,0.0,9.8,74.2,9.8,S
2001-08-19,15.0,83.0,31.7,6.7,34.0,10.4,11.2,46.9,18.4,WSW
2001-08-20,23.8,65.0,37.8,12.4,31.0,10.4,18.0,41.3,17.6,WNW
2001-08-21,21.4,75.0,18.7,10.7,28.0,0.0,16.6,42.8,10.8,NNW
2001-08-22,17.1,96.0,34.6,8.8,54.0,4.3,11.4,81.9,11.5,ENE
2001-08-23,12.2,98.0,14.0,7.6,72.0,0.0,9.2,89.0,9.0,S
2001-08-24,12.0,98.0,22.0,7.3,85.0,0.0,8.9,94.2,10.4,SE
2001-08-25,8.9,98.0,17.3,7.6,97.0,6.5,8.1,98.0,12.7,SSE
2001-08-26,19.4,77.0,40.0,9.6,24.0,10.4,14.8,35.5,18.2,NW
2001-08-27,14.9,93.0,46.8,3.0,28.0,0.0,10.9,53.3,16.3,WSW
2001-08-28,12.1,89.0,58.3,7.4,40.0,18.0,9.6,71.9,34.0,NNE
2001-08-29,14.1,90.0,28.8,3.7,37.0,24.1,10.3,54.2,26.5,W
2001-08-30,15.9,74.0,22.0,5.0,30.0,4.3,11.1,44.4,11.9,WNW
2001-08-31,18.0,67.0,22.7,5.4,26.0,6.5,12.4,38.2,15.3,W
2001-09-01,15.5,90.0,24.1,1.9,34.0,5.8,9.4,61.3,10.6,W
2001-09-02,15.8,78.0,25.6,3.1,29.0,0.0,10.1,51.0,11.0,WNW
2001-09-03,16.4,98.0,20.2,1.1,39.0,0.0,9.3,77.1,10.0,WNW
2001-09-04,15.2,85.0,26.3,5.9,48.0,10.4,10.3,67.9,15.4,W
2001-09-05,18.9,91.0,35.6,8.0,28.0,5.0,13.5,45.1,19.8,NNE
2001-09-06,12.5,98.0,40.7,6.1,74.0,11.9,9.8,86.0,21.5,NNW
2001-09-07,19.1,63.0,28.4,8.3,27.0,6.5,14.5,37.6,15.9,WNW
2001-09-08,17.6,43.0,47.5,8.5,25.0,13.3,14.1,30.6,27.3,NW
2001-09-09,16.0,39.0,29.5,8.7,27.0,7.2,12.6,31.8,17.8,WNW
2001-09-10,17.8,77.0,49.0,2.2,33.0,0.0,9.8,55.4,23.0,SSE
2001-09-11,23.1,74.0,20.9,10.5,31.0,0.0,16.9,46.2,12.6,W
2001-09-12,21.3,83.0,33.1,9.3,33.0,0.0,15.2,56.8,9.7,W
2001-09-13,12.2,86.0,24.1,8.4,68.0,9.0,10.3,76.7,12.2,W
2001-09-14,16.4,85.0,72.0,6.6,34.0,22.7,10.8,61.2,39.8,S
2001-09-15,11.2,85.0,34.6,2.8,55.0,7.2,7.6,67.8,19.4,SSW
2001-09-16,24.7,98.0,21.2,6.3,21.0,8.3,12.4,66.5,13.8,SSE
2001-09-17,13.8,98.0,22.0,6.1,63.0,7.6,10.0,85.4,12.3,ESE
2001-09-18,22.1,51.0,46.1,10.6,24.0,7.2,16.8,33.9,21.2,SW
2001-09-19,15.4,92.0,27.7,9.3,35.0,5.8,12.0,57.0,16.8,NNE
2001-09-20,19.4,51.0,45.4,9.9,24.0,9.7,15.5,31.7,20.8,WSW
2001-09-21,17.8,91.0,30.2,9.6,36.0,0.0,12.2,70.1,16.7,S
2001-09-22,11.7,98.0,19.4,9.1,83.0,7.2,10.1,93.9,13.5,SSE
2001-09-23,11.3,98.0,23.4,8.5,98.0,9.0,9.1,98.0,14.5,ESE
2001-09-24,9.5,98.0,28.4,7.3,80.0,11.2,8.6,93.9,18.5,SE
2001-09-25,14.7,81.0,28.4,7.3,52.0,8.3,10.3,69.1,17.4,ENE
2001-09-26,14.2,94.0,43.2,7.0,47.0,9.7,9.8,67.5,23.3,NNE
2001-09-27,14.4,97.0,42.1,9.7,65.0,12.6,12.2,79.5,27.9,NNE
2001-09-28,18.4,98.0,33.1,8.6,59.0,5.8,12.2,86.4,17.7,ENE
2001-09-29,13.9,98.0,24.8,7.5,74.0,5.0,9.5,93.0,13.3,E
2001-09-30,13.4,98.0,18.0,9.2,90.0,5.8,11.3,96.4,12.2,SE
2001-10-01,19.5,98.0,28.4,9.4,62.0,0.0,13.2,81.5,17.1,NNE
2001-10-02,13.0,98.0,26.3,9.4,76.0,6.5,10.7,89.7,15.5,E
2001-10-03,18.4,96.0,42.1,10.5,53.0,10.4,14.1,72.6,26.3,NNE
2001-10-04,21.6,91.0,50.0,12.5,47.0,19.4,17.2,63.8,32.9,NNE
2001-10-05,23.3,90.0,54.4,14.4,45.0,17.3,18.9,67.6,28.7,NNE
2001-10-06,15.9,98.0,60.5,11.9,93.0,0.0,14.1,96.9,19.0,NNW
2001-10-07,22.7,98.0,14.0,11.6,58.0,0.0,15.4,82.5,6.8,SW
2001-10-08,19.9,94.0,30.2,11.1,45.0,8.3,14.8,67.2,17.0,NE
2001-10-09,22.7,82.0,46.8,9.7,32.0,9.0,15.0,62.8,25.8,S
2001-10-10,18.8,73.0,29.5,9.5,32.0,8.3,13.6,52.2,15.8,SE
2001-10-11,22.3,90.0,33.8,10.0,23.0,0.0,18.2,42.2,19.7,W
2001-10-12,12.9,94.0,43.2,8.8,69.0,9.0,10.6,81.2,23.0,S
2001-10-13,22.0,84.0,61.2,12.5,35.0,0.0,17.2,53.0,25.2,NNE
2001-10-14,12.6,94.0,36.4,9.7,75.0,6.5,11.1,84.5,20.8,SE
2001-10-15,18.2,95.0,52.9,11.7,47.0,13.3,14.9,71.4,29.5,NNE
2001-10-16,23.9,84.0,67.3,15.9,48.0,23.4,20.1,62.9,40.8,NNW
2001-10-17,28.3,67.0,50.0,14.3,32.0,5.0,23.4,48.0,26.2,NNW
2001-10-18,18.2,81.0,33.1,12.0,37.0,9.7,14.0,50.2,18.0,SSW
2001-10-19,20.2,80.0,26.3,7.6,33.0,0.0,14.6,56.6,13.7,ENE
2001-10-20,12.5,74.0,16.6,12.5,74.0,16.6,12.5,74.0,16.6,SSE
2001-10-21,15.2,85.0,27.0,10.1,50.0,7.6,13.3,66.4,16.6,NE
2001-10-22,17.9,75.0,30.2,12.2,34.0,7.2,14.7,57.8,17.2,SSW
2001-10-23,18.2,74.0,30.2,13.5,33.0,11.9,15.3,52.4,15.6,SW
2001-10-24,26.7,93.0,31.7,13.4,30.0,0.0,21.5,50.8,18.6,WSW
2001-10-25,13.2,96.0,33.8,8.7,74.0,5.0,10.5,84.4,20.4,ENE
2001-10-26,17.7,98.0,31.7,12.2,63.0,0.0,13.4,87.2,13.7,ENE
2001-10-27,21.7,88.0,31.0,12.5,35.0,9.0,16.4,64.6,21.9,WNW
2001-10-28,18.4,75.0,42.1,12.3,38.0,15.1,15.4,61.1,28.2,NNE
2001-10-29,25.0,98.0,31.0,12.1,40.0,0.0,16.8,76.6,15.6,ENE
2001-10-30,23.0,98.0,23.4,13.2,43.0,5.0,17.2,75.9,12.5,ENE
2001-10-31,22.4,93.0,22.0,11.2,45.0,0.0,16.2,74.1,12.6,SE
2001-11-01,31.8,73.0,52.2,17.2,25.0,7.6,25.0,44.3,23.6,NNE
2001-11-02,36.3,40.0,55.8,25.1,17.0,9.7,30.8,26.0,33.3,NNE
2001-11-04,25.9,68.0,54.4,13.9,25.0,5.8,19.1,44.0,22.9,NNE
2001-11-05,21.8,87.0,43.2,10.7,24.0,4.3,17.5,47.6,18.7,WSW
2001-11-06,18.8,74.0,34.6,10.3,35.0,8.3,13.8,51.1,20.7,ENE
2001-11-07,22.7,79.0,42.5,12.1,22.0,8.3,16.7,45.5,21.1,E
2001-11-08,23.3,76.0,48.2,16.1,33.0,5.0,19.5,48.9,21.6,NNE
2001-11-09,20.8,98.0,22.0,12.7,43.0,5.8,15.7,72.8,13.8,SE
2001-11-10,19.5,98.0,27.7,12.1,69.0,0.0,15.8,87.1,12.9,NE
2001-11-11,18.9,74.0,46.1,8.0,31.0,4.3,13.8,53.5,27.8,SSE
2001-11-12,22.0,88.0,28.8,13.1,25.0,8.3,16.4,58.9,16.1,ENE
2001-11-13,18.2,84.0,26.3,11.5,42.0,9.0,15.4,65.9,16.6,ENE
2001-11-14,24.1,61.0,44.6,12.5,22.0,0.0,19.5,33.1,22.3,WSW
2001-11-15,15.0,61.0,41.4,9.4,43.0,9.0,12.6,49.6,19.6,ENE
2001-11-16,23.1,40.0,40.0,14.3,22.0,5.0,20.6,27.0,16.9,WNW
2001-11-17,27.9,91.0,47.5,12.4,22.0,0.0,21.4,47.6,21.9,WSW
2001-11-18,28.5,46.0,45.4,18.7,20.0,7.6,24.6,26.7,21.6,W
2001-11-19,22.1,83.0,34.6,11.2,38.0,6.5,14.1,74.2,18.6,SE
2001-11-20,26.4,65.0,39.2,17.1,22.0,6.5,21.0,40.0,18.1,ENE
2001-11-21,28.1,61.0,38.5,16.0,20.0,0.0,23.9,29.5,22.1,WNW
2001-11-22,24.5,77.0,34.6,16.5,33.0,0.0,20.7,53.4,16.7,ENE
2001-11-23,13.1,94.0,41.4,5.5,53.0,5.8,9.6,71.4,20.2,SE
2001-11-24,22.8,35.0,37.8,14.7,23.0,9.7,19.2,27.0,21.0,W
2001-11-25,25.8,92.0,44.6,11.8,25.0,0.0,17.6,63.5,20.7,ENE
2001-11-26,18.4,70.0,56.5,9.1,25.0,6.5,13.9,45.1,27.2,ENE
2001-11-27,30.5,57.0,37.8,17.2,16.0,9.0,23.9,33.1,19.9,ENE
2001-11-28,15.6,73.0,43.9,11.3,47.0,14.0,13.8,63.8,27.6,SE
2001-11-29,28.0,65.0,45.4,14.3,19.0,5.8,20.5,36.2,25.4,NNW
2001-11-30,32.0,68.0,72.0,19.6,21.0,5.8,25.2,37.3,22.6,NE
2001-12-01,13.7,71.0,51.5,11.5,40.0,12.6,12.7,54.9,29.3,SSE
2001-12-02,25.4,56.0,51.5,16.0,18.0,0.0,19.8,31.2,28.8,NNE
2001-12-03,29.1,65.0,45.4,18.8,21.0,5.8,24.3,30.6,22.6,W
2001-12-04,31.6,30.0,44.6,21.7,19.0,11.2,27.7,23.0,28.9,WSW
2001-12-05,29.1,63.0,49.7,17.0,19.0,9.7,21.8,34.5,23.3,NNE
2001-12-06,31.4,42.0,43.2,18.8,15.0,8.3,25.5,23.6,24.8,WSW
2001-12-07,14.0,65.0,47.5,10.8,48.0,15.1,12.5,55.2,30.4,SSE
2001-12-08,20.5,75.0,49.0,13.3,29.0,11.9,16.4,55.0,25.7,ENE
2001-12-09,26.0,95.0,22.7,14.8,37.0,8.3,19.0,70.8,15.5,SE
2001-12-10,33.9,68.0,39.2,17.8,17.0,0.0,26.0,35.0,19.4,SW
2001-12-11,21.5,91.0,36.4,14.5,42.0,13.3,17.0,76.8,23.9,ENE
2001-12-12,29.2,53.0,60.5,18.6,26.0,18.7,25.1,34.3,35.2,NNE
2001-12-13,32.3,57.0,60.5,21.5,24.0,6.5,28.7,32.4,35.6,NNE
2001-12-14,18.1,92.0,49.0,14.5,63.0,10.4,16.2,79.3,24.8,S
2001-12-15,27.5,96.0,24.8,16.6,46.0,7.2,19.6,83.6,14.1,SE
2001-12-16,19.1,98.0,33.1,14.4,80.0,11.2,16.8,90.6,21.5,SE
2001-12-17,23.2,78.0,52.9,15.6,25.0,11.2,19.3,59.1,28.4,ENE
2001-12-18,32.2,79.0,44.6,15.6,18.0,5.0,23.8,42.1,21.4,NE
2001-12-19,18.6,79.0,39.2,15.0,64.0,11.2,16.7,70.9,26.2,ENE
2001-12-20,21.6,69.0,28.4,13.3,27.0,0.0,17.1,53.8,17.1,ESE
2001-12-21,26.1,65.0,45.4,16.7,25.0,11.2,21.7,44.7,27.1,ENE
2001-12-22,25.0,71.0,52.9,15.6,26.0,9.0,19.7,52.7,20.2,NE
2001-12-23,30.2,56.0,68.8,20.0,26.0,11.9,25.4,36.4,38.6,NNE
2001-12-24,34.8,81.0,38.5,18.0,18.0,7.6,24.6,52.3,21.2,ENE
2001-12-25,25.0,95.0,25.6,17.7,55.0,0.0,20.6,77.7,14.9,ENE
2001-12-26,30.8,75.0,43.2,17.1,19.0,6.5,23.5,43.3,20.6,ENE
2001-12-27,29.9,70.0,41.4,19.2,16.0,0.0,23.8,36.8,24.1,NE
2001-12-28,25.1,93.0,27.7,16.9,36.0,6.5,20.4,64.1,16.5,ENE
2001-12-29,27.9,93.0,31.0,19.1,56.0,6.5,23.3,72.9,17.6,ENE
2001-12-30,30.5,98.0,30.2,16.5,35.0,7.2,21.9,72.3,16.3,SE
2001-12-31,23.8,98.0,35.3,17.9,61.0,9.0,20.9,79.3,19.5,ENE
